This demonstration page uses our WeatherBlox Daily Observations layout. Learn more.

Left ArrowRight Arrow

Hourly Observations for December 18, 2018

Temp ( °F °C ) Dew Point ( °F °C ) Humidity (%) Winds ( mph kmh ) Pressure ( in mb ) Visibility ( mi km ) Precip ( " mm )
12:57 am 00:57 Clear 35 1.7 29 -1.7 78 78 SSW 8 13 30.01 1016 10 16 0.00 0.00
1:57 am 01:57 Clear 35 1.7 29 -1.7 78 78 SSW 8 13 29.98 1015 10 16 0.00 0.00
2:57 am 02:57 Clear 35 1.7 28 -2.2 76 76 SSW 9 15 29.98 1015 10 16 0.00 0.00
3:57 am 03:57 Clear 34 1.1 28 -2.2 79 79 SW 6 9 29.96 1015 10 16 0.00 0.00
4:57 am 04:57 Clear 35 1.7 28 -2.2 76 76 SW 8 13 29.96 1015 10 16 0.00 0.00
5:57 am 05:57 Clear 35 1.7 29 -1.7 78 78 WSW 5 7 29.95 1014 10 16 0.00 0.00
6:57 am 06:57 Clear 36 2.2 29 -1.7 76 76 SSW 9 15 29.94 1014 10 16 0.00 0.00
7:57 am 07:57 Sunny 35 1.7 29 -1.7 78 78 SW 9 15 29.95 1014 10 16 0.00 0.00
8:57 am 08:57 Sunny 35 1.7 29 -1.7 78 78 WSW 3 6 29.97 1015 10 16 0.00 0.00
9:57 am 09:57 Partly Cloudy 35 1.7 29 -1.7 78 78 SW 7 11 29.96 1015 10 16 0.00 0.00
10:57 am 10:57 Cloudy 37 2.8 29 -1.7 73 73 SW 6 9 29.95 1014 10 16 0.00 0.00
11:57 am 11:57 Cloudy 38 3.3 30 -1.1 73 73 SSW 6 9 29.93 1013 10 16 0.00 0.00
12:57 pm 12:57 Mostly Cloudy 40 4.4 30 -1.1 68 68 S 3 6 29.90 1013 10 16 0.00 0.00
1:57 pm 13:57 Cloudy 41 5 33 0.6 73 73 SSW 6 9 29.88 1012 10 16 0.00 0.00
2:57 pm 14:57 Mostly Cloudy 45 7.2 33 0.6 63 63 Calm 29.86 1011 10 16 0.00 0.00
3:57 pm 15:57 Sunny 43 6.1 34 1.1 71 71 S 6 9 29.86 1011 10 16 0.00 0.00
4:57 pm 16:57 Sunny 42 5.6 35 1.7 76 76 SSW 8 13 29.86 1011 10 16 0.00 0.00
5:57 pm 17:57 Clear 41 5 34 1.1 76 76 SW 7 11 29.86 1011 10 16 0.00 0.00
6:57 pm 18:57 Clear 39 3.9 33 0.6 79 79 SW 7 11 29.85 1011 10 16 0.00 0.00
7:57 pm 19:57 Clear 38 3.3 32 0 79 79 SW 8 13 29.85 1011 10 16 0.00 0.00
8:57 pm 20:57 Clear 36 2.2 30 -1.1 79 79 WSW 7 11 29.84 1010 10 16 0.00 0.00
9:57 pm 21:57 Clear 36 2.2 30 -1.1 79 79 SW 9 15 29.83 1010 10 16 0.00 0.00
10:57 pm 22:57 Clear 36 2.2 31 -0.6 82 82 WSW 12 19 29.81 1010 10 16 0.00 0.00
11:57 pm 23:57 Clear 35 1.7 30 -1.1 82 82 WSW 9 15 29.78 1009 10 16 0.00 0.00

Powered by AerisWeather